Regional Weather Roundup
Issued by NWS Portland, ME

Current Version | Previous Version | Text Only | Print | Product List | Glossary Off
Versions: 1 2 3 4 5 6 7 8 9 10 11 12 13 14 15 16 17 18 19 20 21 22 23 24 25 26 27 28 29 30 31 32 33 34 35 36 37 38 39 40 41 42 43 44 45 46 47 48 49 50
000 ASUS41 KGYX 170010 RWRGYX WEATHER ROUNDUP FOR MAINE AND NEW HAMPSHIRE NATIONAL WEATHER SERVICE GRAY ME 700 PM EST SUN DEC 16 2018 MEZ002-005-006-010-012-015-018-020-021-024-026-027-029-170100- MAINE CITY SKY/WX TMP DP RH WIND PRES REMARKS PORTLAND FAIR 32 26 78 VRB7 30.02F 6HR MIN TEMP: 32; 6HR MAX TEMP: 40; SANFORD CLOUDY 35 28 75 N10 29.99F BAR HARBOR FAIR 31 28 89 N5 30.03F WISCASSET FAIR 34 29 82 CALM 30.03F 6HR MIN TEMP: 32; 6HR MAX TEMP: 41; ROCKLAND FAIR 36 31 82 E9 30.03S FRYEBURG FAIR 27 23 85 CALM 30.02S 6HR MIN TEMP: 27; 6HR MAX TEMP: 38; LEWISTONAUBURN FAIR 32 26 78 N7 30.02S AUGUSTA FAIR 32 26 78 N7 30.03S 6HR MIN TEMP: 32; 6HR MAX TEMP: 37; WATERVILLE FAIR 32 27 81 MISG 30.01S BANGOR CLOUDY 33 26 75 NE10 30.04F 6HR MIN TEMP: 33; 6HR MAX TEMP: 37; GREENVILLE N/A 28 21 75 SE3 29.97F 6HR MIN TEMP: 27; 6HR MAX TEMP: 33; MILLINOCKET FAIR 27 23 85 CALM 30.07F 6HR MIN TEMP: 26; 6HR MAX TEMP: 35; HOULTON FAIR 23 22 96 CALM 30.09F 6HR MIN TEMP: 22; 6HR MAX TEMP: 34; PRESQUE ISLE FAIR 18 16 92 CALM 30.11R 6HR MIN TEMP: 18; 6HR MAX TEMP: 31; FRENCHVILLE FAIR 27 22 81 SE3 30.05F 6HR MIN TEMP: 27; 6HR MAX TEMP: 32; CARIBOU FAIR 23 19 85 CALM 30.08F 6HR MIN TEMP: 21; 6HR MAX TEMP: 34; $$ NHZ002-005-008-009-011-012-014-170100- NEW HAMPSHIRE CITY SKY/WX TMP DP RH WIND PRES REMARKS PORTSMOUTH MOCLDY 40 34 79 NE14G22 29.93F ROCHESTER CLOUDY 36 29 75 N8 29.97F 6HR MIN TEMP: 36; 6HR MAX TEMP: 38; NASHUA LGT RAIN 37 32 82 N9 29.94F MANCHESTER CLOUDY 38 30 73 N10 29.93F 6HR MIN TEMP: 38; 6HR MAX TEMP: 39; 6HR PCP: TRACE; CONCORD CLOUDY 36 28 73 NE8 29.97F 6HR MIN TEMP: 36; 6HR MAX TEMP: 38; LACONIA MOCLDY 35 27 72 NE6 29.99S PLYMOUTH CLOUDY 32 27 82 CALM 29.98F BERLIN FAIR 28 24 85 CALM 29.97S 6HR MIN TEMP: 28; 6HR MAX TEMP: 38; WHITEFIELD FAIR 32 24 72 CALM 29.96R 6HR MIN TEMP: 31; 6HR MAX TEMP: 37; JAFFREY LGT RAIN 33 32 96 VRB5 29.89F 6HR MIN TEMP: 33; 6HR MAX TEMP: 34; 6HR PCP: 0.01; KEENE LGT RAIN 35 31 85 N9 29.92F LEBANON CLOUDY 34 26 72 CALM 29.97F 6HR MIN TEMP: 34; 6HR MAX TEMP: 38; 6HR PCP: TRACE; MT WASHINGTON MOCLDY 23 -8 25 E40 N/A WCI 3 6HR MIN TEMP: 21; 6HR MAX TEMP: 26; $$ VTZ005-007-008-170100- VERMONT CITY SKY/WX TMP DP RH WIND PRES REMARKS ST JOHNSBURY N/A 31 27 85 MISG 29.96S MONTPELIER CLOUDY 30 26 85 S3 29.99 BURLINGTON CLOUDY 35 27 72 CALM 29.98F $$ MAZ007-012-024-CTZ003-RIZ002-NYZ038-NYZ072-170100- SOUTHERN NEW ENGLAND AND NY CITY SKY/WX TMP DP RH WIND PRES REMARKS BOSTON RAIN 43 38 82 NE18G28 29.90F WORCESTER RAIN 34 33 96 NE12G20 29.85F FOG NANTUCKET LGT RAIN 45 44 97 NE16G30 29.75S FOG PROVIDENCE RAIN 40 39 97 NE17 29.83F FOG HARTFORD RAIN 36 35 96 N15 29.87F FOG ALBANY LGT RAIN 36 32 85 N7 29.95S NEW YORK CITY LGT RAIN 40 37 89 N13 29.80F FOG $$ ANZ081-ANZ082-ANZ150-NHZ014-MEZ023>029-170100- COASTAL MARINE OBSERVATIONS STATION/POSITION TIME TEMP WIND PRES WAVE AIR SEA DIR/SP/G HT/PER (UTC) (F) (DEG/KT/KT) (MB) (FT/S) MOUNT DESERT ROC 0000 40 50/ 25/ 27 1016.2S MATINICUS ROCK 2300 41 70/ 27/ 30 1015.5F ISLE OF SHOALS 2300 42 60/ 27/ 30 1013.3F JEFFREYS LEDGE 2338 46 N/A 8/10 CASHES LEDGE BUO 2350 42 47 1014.6R 9/10 $$ .............KEY.............. WCI - WIND CHILL TC - TEMPERATURE IN CELSIUS VSB - VISIBILITY IN MILES HX - HEAT INDEX FAIR- INDICATES FEW OR NO CLOUDS BELOW 12,000 FT, WITH NO SIGNIFICANT WEATHER AND/OR OBSTRUCTIONS TO VISIBILITY.

USA.gov is the U.S. government's official web portal to all federal, state and local government web resources and services.